Regional Weather Roundup
Issued by NWS Mt. Holly, NJ

Home | Current Version | Previous Version | Text Only | Print | Product List | Glossary On
Versions: 1 2 3 4 5 6 7 8 9 10 11 12 13 14 15 16 17 18 19 20 21 22 23 24 25 26 27 28
000
ASUS41 KPHI 310612
RWRPHI

REGIONAL WEATHER ROUNDUP
NATIONAL WEATHER SERVICE MOUNT HOLLY NJ
200 AM EDT SAT JUL 31 2021

NOTE:  "FAIR" INDICATES FEW OR NO CLOUDS BELOW 12,000 FEET WITH NO
SIGNIFICANT WEATHER AND/OR OBSTRUCTIONS TO VISIBILITY.

 * = STATION DOES NOT REPORT PRECIPITATION (E.G. RAIN, SNOW, ETC.)
        OR FOG.

NJZ015>026-310700-
SOUTHERN NEW JERSEY

CITY           SKY/WX    TMP DP  RH WIND       PRES   REMARKS
POMONA         CLEAR     65  54  67 CALM      29.98R
6HR MIN TEMP:  64; 6HR MAX TEMP:  78;

WILDWOOD*      PTCLDY    68  55  63 N8        29.98R
MILLVILLE      PTCLDY    67  53  61 NE6       29.98R
WRIGHTSTOWN    CLEAR     60  51  72 N7        29.98R
MOUNT HOLLY    CLEAR     62  53  72 N3        29.99R
TRENTON        CLEAR     62  51  67 CALM      29.99R
6HR MIN TEMP:  62; 6HR MAX TEMP:  75;


$$
NJZ001>014-310700-
NORTHERN NEW JERSEY

CITY           SKY/WX    TMP DP  RH WIND       PRES   REMARKS
SUSSEX         CLEAR     53  51  93 CALM      30.00F
ANDOVER*         N/A     58  50  75 CALM      29.99F
MORRISTOWN     CLEAR     61  48  63 N5        29.98S
NEWARK         CLEAR     66  48  52 N13       29.96F
TETERBORO      CLEAR     62  47  57 N7        29.95F
CALDWELL       CLEAR     63  47  55 NE3       29.98F
SOMERVILLE     CLEAR     57  51  80 CALM      29.97R
ALLAIRE*       CLEAR     63  50  62 N8        29.99R

$$
PAZ043-044-047-054-055-060>062-066>071-310700-
EASTERN PENNSYLVANIA

CITY           SKY/WX    TMP DP  RH WIND       PRES   REMARKS
PHILADELPHIA   PTCLDY    68  48  48 N13       30.00R
6HR MIN TEMP:  68; 6HR MAX TEMP:  81;

NORTH PHILA    CLEAR     65  49  56 N9        30.01R
BLUE BELL*     CLEAR     57  54  89 CALM      30.01S
DOYLESTOWN     CLEAR     59  49  69 CALM      30.00R
PERKASIE*      FAIR      57  50  77 CALM      30.01S
POTTSTOWN      CLEAR     59  50  72 NW3       30.02S
LANCASTER      CLEAR     64  52  64 CALM      30.01R
COATESVILLE    CLEAR     63  54  72 N3        30.02S
WEST CHESTER   FAIR      64  52  63 N3        30.01S
READING        CLEAR     62  54  74 CALM      30.00R
6HR MIN TEMP:  62; 6HR MAX TEMP:  76;

ALLENTOWN      CLEAR     58  48  69 N5        30.00S
6HR MIN TEMP:  57; 6HR MAX TEMP:  72;

QN CITY/ALNTWN FAIR      63  50  63 CALM      30.02S
MOUNT POCONO   CLEAR     53  47  79 NW13      30.01S
6HR MIN TEMP:  53; 6HR MAX TEMP:  64;

WILKES BARRE   CLEAR     55  51  86 CALM      30.02F

$$
DEZALL-MDZ008-012-015-019-020-310700-
DELAWARE AND EASTERN MARYLAND

CITY           SKY/WX    TMP DP  RH WIND       PRES   REMARKS
WILMINGTON     CLEAR     66  52  60 N9        30.00R
6HR MIN TEMP:  65; 6HR MAX TEMP:  80;

DOVER          PTCLDY    66  57  72 N9        29.96S
CHESWOLD       MOCLDY    68  55  64 NE6       29.98R
GEORGETOWN     PTCLDY    68  64  87 CALM      29.97R
6HR MIN TEMP:  67; 6HR MAX TEMP:  82;

EASTON         PTCLDY    71  62  73 CALM      30.01R
ABERDEEN       CLEAR     64  57  78 N3        29.97S
PATUXENT       PTCLDY    78  61  55 NE7       29.95S
OCEAN CITY     PTCLDY    74  62  66 NE7       29.96R
WALLOPS ISLAND MOCLDY    73  72  96 CALM      29.94S
CAMBRIDGE      CLEAR     73  64  73 N5        29.96S
SALISBURY      PTCLDY    71  65  81 N3        29.96R

$$
PAZ001-021-NYZ056-072-MDZ011-DCZ001-310700-
OTHER NEARBY LOCATIONS

CITY           SKY/WX    TMP DP  RH WIND       PRES   REMARKS
HARRISBURG     PTCLDY    66  50  56 N7        30.01R
WILLIAMSPORT   CLEAR     56  51  84 W3        30.01F
BINGHAMTON     CLEAR     51  48  89 W7        30.01S
NEW YORK CITY  CLEAR     65  47  52 VRB7      29.99F
BALTIMORE      PTCLDY    72  54  53 NE8       29.98S
WASHINGTON DC  MOCLDY    76  54  46 N12       29.99S

$$



USA.gov is the U.S. government's official web portal to all federal, state and local government web resources and services.